Regional Weather Roundup
Issued by NWS

Current Version | Previous Version | Text Only | Print | Product List | Glossary On
Versions: 1 2 3 4 5 6 7 8 9 10 11 12 13 14 15 16 17 18 19 20 21 22 23 24 25 26 27 28 29 30 31 32 33 34 35 36 37 38 39 40 41 42 43 44 45 46 47 48 49 50
000
ASUS44 KFWD 212315
RWRTX
NORTH TEXAS HOURLY WEATHER ROUNDUP
NATIONAL WEATHER SERVICE FORT WORTH TX
600 PM CDT THU SEP 21 2017

NOTE: "FAIR" INDICATES FEW OR NO CLOUDS BELOW 12,000 FEET WITH NO
SIGNIFICANT WEATHER AND/OR OBSTRUCTIONS TO VISIBILITY.

TXZ118-119-220000-
DALLAS/FORT WORTH METROPLEX

CITY           SKY/WX    TMP DP  RH WIND       PRES   REMARKS
DFW AIRPORT    MOSUNNY   94  67  41 SE12      29.84S HX  97
DALLAS LOVE    MOSUNNY   94  67  41 SE18      29.85S HX  97
FTW MEACHAM    MOSUNNY   96  68  39 SE17G23   29.83F HX 101
DAL-EXECUTIVE  MOSUNNY   94  66  39 SE10G18   29.85S HX  97
FTW-ALLIANCE   MOSUNNY   95  67  39 SE13G18   29.84S HX  99
FTW-NAS-JRB    SUNNY     95  65  37 S15       29.84F HX  97
FTW-SPINKS     MOSUNNY   95  63  34 SE13      29.87S HX  96
ARLINGTON      SUNNY     94  67  41 SE15      29.85S HX  97
GRAND PRAIRIE  SUNNY     93  63  36 SE12G17   29.86S HX  94
ADDISON        MOSUNNY   93  66  40 MISG      29.86F HX  96
MESQUITE       MOSUNNY   93  64  38 E8G17     29.87S HX  95
LANCASTER      MOSUNNY   93  66  41 SE14      29.87S HX  96
$$

TXZ091>094-102>105-117-120-121-131>134-220000-
NORTH CENTRAL TEXAS

CITY           SKY/WX    TMP DP  RH WIND       PRES   REMARKS
SHRMAN/DENISON SUNNY     91  69  48 SE12      29.88S HX  95
GAINESVILLE    SUNNY     91  67  45 S16       29.88S HX  94
BOWIE          MOSUNNY   91  71  52 SE8G17    29.85F HX  96
BRIDGEPORT     SUNNY     92  67  42 SE12G18   29.86S HX  95
DECATUR        SUNNY     92  66  42 SE13G22   29.85S HX  95
DENTON         SUNNY     93  68  43 S14       29.85S HX  97
MCKINNEY       SUNNY     92  70  48 SE15      29.86F HX  97
BONHAM         MOSUNNY   90  69  49 SE15      29.88F HX  94
GREENVILLE     SUNNY     95  68  41 SE12      29.89R HX  99
ROCKWALL       MOSUNNY   93  68  44 S15       29.87F HX  97
TERRELL        SUNNY     93  66  40 SE13      29.88S HX  96
WAXAHACHIE     SUNNY     93  66  41 SE12      29.87F HX  96
CLEBURNE       MOSUNNY   93  66  40 S12G18    29.87S HX  96
GRANBURY       SUNNY     95  66  38 SE13      29.85S HX  98
$$

TXZ083>090-098>101-113>116-127>130-139>142-154-155-220000-
WESTERN NORTH TEXAS

CITY           SKY/WX    TMP DP  RH WIND       PRES   REMARKS
WICHITA FALLS  MOSUNNY   93  70  46 SE23      29.80F HX  99
WF-KICKAPOO    SUNNY     93  72  49 SE20G26   29.83S HX 101
VERNON         SUNNY     98  56  24 S21G26    29.79S HX  96
ABILENE        SUNNY     94  62  34 S16G22    29.84F HX  94
ABILENE-DYESS  MOSUNNY   96  64  34 SE16G26   29.82F HX  98
GRAHAM         MOSUNNY   97  64  34 SE9G16    29.81S HX  99
BRECKENRIDGE   SUNNY     96  62  31 SE14G20   29.83R HAZE    HX  97
CISCO          SUNNY     95  64  36 SE15      29.86S HX  97
EASTLAND       SUNNY     94  66  39 SE16      29.85R HX  96
RANGER         MOSUNNY   93  64  38 SE13      29.86S HX  95
MINERAL WELLS  SUNNY     93  67  42 SE15G24   29.83S HX  96
STEPHENVILLE   MOSUNNY   93  63  36 SE12      29.89S HX  94
COMANCHE       SUNNY     95  63  35 SE12      29.86S HX  96
BROWNWOOD      LGT RAIN  93  63  36 S13G18    29.85S HX  94
COLEMAN        MOSUNNY   93  60  32 SE10G18   29.85S HX  93
$$

TXZ143>147-156>162-174-175-220000-
CENTRAL TEXAS

CITY           SKY/WX    TMP DP  RH WIND       PRES   REMARKS
WACO           SUNNY     94  67  41 SE15      29.85S HX  97
WACO-TSTC      MOSUNNY   95  64  36 S9G20     29.86S HX  97
WACO-MCGREGOR  SUNNY     93  69  45 SE16G23   29.86S HX  98
HILLSBORO      MOSUNNY   94  67  41 S16       29.87S HX  98
CORSICANA      MOSUNNY   93  70  46 SE25G40   29.90R HX  99
MEXIA          MOSUNNY   86  69  56 S17G28    29.89R HX  90
CAMERON        MOSUNNY   86  71  61 S12G23    29.89R HX  92
TEMPLE         MOSUNNY   92  71  50 SE16G23   29.87S HX  98
KILLEEN        MOSUNNY   95  70  43 SE14      29.86S HX 101
FORT HOOD      PTSUNNY   92  69  45 SE17G24   29.83S HX  97
GATESVILLE     SUNNY     93  68  43 SE14G21   29.88R HX  97
HAMILTON       PTSUNNY   94  63  35 SE17G23   29.88R HX  95
LAMPASAS       MOSUNNY   95  70  44 SE15      29.86S HX 100
$$

TXZ095>097-106>112-122>126-135>138-148>153-164>167-220000-
EAST TEXAS

CITY           SKY/WX    TMP DP  RH WIND       PRES   REMARKS
PARIS          MOSUNNY   90  71  53 SE10      29.90S HX  96
SULPHUR SPRNGS SUNNY     92  67  43 S9        29.91S HX  95
MOUNT PLEASANT SUNNY     89  71  55 SE8       29.91S HX  95
GILMER         MOSUNNY   90  72  55 E10       29.91S HX  96
MINEOLA        SUNNY     91  70  49 SE6       29.89R HX  97
TYLER          MOSUNNY   84  70  62 S15G26    29.93R
LONGVIEW       CLOUDY    78  70  76 S17       29.93R
MARSHALL       PTSUNNY   86  71  61 S9        29.95S HX  91
ATHENS         MOSUNNY   86  70  58 S14G20    29.90R HX  90
PALESTINE      CLOUDY    80  72  77 SE6       29.93F
JACKSONVILLE   CLOUDY    76  72  89 S6        29.97R
HENDERSON      LGT RAIN  74  71  92 S6        29.95F
CENTER         CLOUDY    80  69  71 CALM      29.96F
NACOGDOCHES    LGT RAIN  74  72  93 CALM      29.96F
LUFKIN         CLOUDY    76  74  93 NW6       29.94S
$$

SUPPLEMENTAL OBSERVATIONS (NWS FORT WORTH AREA)

CITY           SKY/WX    TMP DP  RH WIND       PRES   REMARKS
DENISON DAM      N/A     90  66  45 SE12        N/A  HX  92
CADDO GRASSLND   N/A     91  68  46 S7          N/A  HX  95
PAT MAYSE LAKE   N/A     90  70  51 E8          N/A  HX  95
GREENVILLE       N/A     91  68  46 SE8         N/A  HX  95
CEDAR HILL       N/A     93  64  38 SE9G17      N/A  HX  95
LBJ GRASSLAND    N/A     93  66  40 SE12        N/A  HX  96
POSSUM KINGDOM   N/A     97  66  36 SE12        N/A  HX 100
GRANBURY         N/A     93  64  38 SE14        N/A  HX  95
COMANCHE         N/A     93  61  33 SE15        N/A  HX  93
MCGREGOR         N/A     91  64  40 SE12        N/A  HX  93
TEMPLE           N/A     86  68  54 SE10G21     N/A
LAKE LIMESTONE   N/A     86  70  58 SE8G18      N/A  HX  90
ATHENS           N/A     84  70  61 SE16G25     N/A
$$

SUPPLEMENTAL OBSERVATIONS (NWS NORMAN AREA)

CITY           SKY/WX    TMP DP  RH WIND       PRES   REMARKS
ODELL            N/A     96  64  35 SE18      29.79S HX  98
CROWELL          N/A     97  60  29 S20       29.79R HX  97
KNOX CITY        N/A     98  55  23 SE20      29.79S HX  96
SEYMOUR          N/A     96  61  31 SE16      29.80S HX  96
MILLERS CREEK    N/A     97  64  34 SE15        N/A  HX  99
$$

SUPPLEMENTAL OBSERVATIONS (NWS SAN ANGELO AREA)

CITY           SKY/WX    TMP DP  RH WIND       PRES   REMARKS
WEINERT          N/A     97  62  30 S14G20    29.81S HX  98
HASKELL          N/A     95  56  26 S14G22    29.81S HX  93
THROCKMORTON     N/A     96  66  37 SE14      29.82S HX  99
STAMFORD         N/A     97  63  32 S18       29.82S HX  98
CLYDE            N/A     92  65  40 S12       29.87S HX  94
HAMBY            N/A     95  59  30 S16         N/A  HX  94
IVIE RESERVOIR   N/A    N/A N/A N/A SE14        N/A
COLORADO BEND    N/A     93  63  36 SE13        N/A  HX  94
$$

SUPPLEMENTAL OBSERVATIONS (NWS SHREVEPORT AREA)

CITY           SKY/WX    TMP DP  RH WIND       PRES   REMARKS
CLARKSVILLE      N/A     90  66  45 SE7         N/A  HX  92
TEXARKANA        N/A     88  73  62 SE1G9       N/A  HX  96
LINDEN           N/A     90  70  51 SE3G12      N/A  HX  95
CADDO LAKE       N/A     90  70  51 SE5         N/A  HX  95
GILMER           N/A     84  68  58 S14G32      N/A
HENDERSON        N/A     73  70  88 S5G15       N/A
LUFKIN           N/A     77  75  94 MISG        N/A
N SABINE NF      N/A     81  73  78 MISG        N/A
S SABINE NF      N/A     81  75  83 S2          N/A
$$

SUPPLEMENTAL OBSERVATIONS ARE A COLLECTION OF AUTOMATED INSTRUMENTS
THAT ARE MAINTAINED BY A VARIETY OF FEDERAL AND STATE AGENCIES.
CERTAIN ELEMENTS...SUCH AS HUMIDITY VALUES AND SUSTAINED WIND
SPEEDS...MAY BE APPROXIMATED.





USA.gov is the U.S. government's official web portal to all federal, state and local government web resources and services.